Location: Peebles
(55.6412°N, 3.1714°W)
Time: 11:32:01
(UTC+00:00)

CUTE-I - Pass Details

Date: 14 December 2023
Orbit: 807 x 823 km, 98.7° (Epoch: 24 February)

Event Time Altitude Azimuth Distance (km) Brightness Sun altitude
Rises 18:22:37 0° 193° (SSW) 3,325 ? -21.1°
Reaches altitude 10° 18:25:12 10° 204° (SSW) 2,401 ? -21.5°
Maximum altitude 18:29:54 32° 266° (W) 1,387 ? -22.1°
Drops below altitude 10° 18:34:40 10° 329° (NNW) 2,426 ? -22.8°
Sets 18:37:18 0° 339° (NNW) 3,366 ? -23.2°
